Location: Banff
(51.1667°N, 115.5667°W)
Time: 09:45:49
(UTC+00:00)

Envisat - Pass Details

Date: 03 December 2022
Orbit: 763 x 765 km, 98.2° (Epoch: 28 January)

Event Time Altitude Azimuth Distance (km) Brightness Sun altitude
Rises 11:00:00 0° 23° (NNE) 3,246 6.7 -40.6°
Reaches altitude 10° 11:02:43 10° 36° (NE) 2,315 5.9 -40.2°
Enters shadow 11:04:18 17° 51° (NE) 1,866 5.5 -40.0°
